Regional Weather Roundup
Issued by NWS

Home | Current Version | Previous Version | Text Only | Print | Product List | Glossary On
Versions: 1 2 3 4 5 6 7 8 9 10 11 12 13 14 15 16 17 18 19 20 21 22 23 24 25 26 27 28 29 30 31 32 33 34 35 36 37 38 39 40 41 42 43 44 45 46 47 48 49
000
ASUS45 KBOU 311007
RWRCO

WEATHER ROUNDUP FOR COLORADO
NATIONAL WEATHER SERVICE DENVER/BOULDER CO
300 AM MST SAT JAN 31 2015

NOTE: "FAIR" INDICATES FEW OR NO CLOUDS BELOW 12000 FEET WITH NO
SIGNIFICANT WEATHER AND/OR OBSTRUCTIONS TO VISIBILITY.

COZ001>005-013-030-031-311100-
...NORTHWEST COLORADO...

CITY           SKY/WX    TMP DP  RH WIND       PRES   REMARKS
CRAIG          LGT RAIN  33  32  96 CALM      29.91F FOG
HAYDEN         CLOUDY    30  28  93 SW3       29.90F VSB 1/2
MEEKER         LGT SNOW  33  32  96 CALM      29.91S VSB 3/4
MOUNT WERNER   NOT AVBL
STEAMBOAT SPGS CLOUDY    31  30  97 CALM      29.89F
WALDEN         CLOUDY    30  28  93 CALM      29.91F
$$

COZ006>008-011-311100-
...WEST CENTRAL VALLEYS...

CITY           SKY/WX    TMP DP  RH WIND       PRES   REMARKS
GRAND JUNCTION LGT RAIN  38  38 100 CALM      29.90F FOG
MONTROSE       CLOUDY    38  36  92 NW3       29.92F
EAGLE          CLOUDY    34  32  93 CALM      29.94F
RIFLE          LGT RAIN  36  34  92 CALM      29.91S FOG
DELTA          FOG       40  40  99 CALM      29.90F VSB 1/4
NUCLA          LGT RAIN  34  34 100 CALM      29.95S
$$

COZ017>023-064>068-311100-
...SOUTHWEST COLORADO...

CITY           SKY/WX    TMP DP  RH WIND       PRES   REMARKS
DURANGO        LGT SNOW  32  32 100 CALM      29.92F FOG
CORTEZ         LGT RAIN  35  34  96 SW6       29.91F FOG     WCI  30
PAGOSA SPRINGS LGT SNOW  34  34 100 CALM      29.93F
TELLURIDE      CLOUDY    30  30 100 CALM      29.91F FOG
WOLF CREEK PAS SNOW      21  21 100 SW6       29.99F VSB 1/2 WCI  14
$$

COZ009-010-012-014-032>034-037-058>063-311100-
...CENTRAL COLORADO...

CITY           SKY/WX    TMP DP  RH WIND       PRES   REMARKS
ASPEN          CLOUDY    31  30  96 S3        29.88F
BUENA VISTA    CLOUDY    31  29  94 E5        29.94F WCI  26
COPPER MTN     MOCLDY    28  21  74 S9        29.95F WCI  20
BERTHOUD PASS  MOCLDY    19  12  73 SW9       29.97F WCI   9
COTTONWOOD PAS FOG       30  27  86 CALM      29.95F VSB 1/4
GUNNISON       CLOUDY    32  28  86 N8        29.92F WCI  25
KREMMLING      FLURRIES  28  27  93 CALM      29.93F
LEADVILLE      CLOUDY    23  22  96 CALM      29.93F FOG
MONARCH PASS   FOG       25  23  93 MISG      30.06F VSB<1/4
SALIDA         CLOUDY    32  31  98 CALM      30.02F VSB 3/4
SUNLIGHT       LGT SNOW  30  28  93 CALM        N/A
WILKERSON PASS CLOUDY   N/A N/A N/A SW3       29.97F
$$

COZ069>075-311100-
...SAN LUIS VALLEY/SANGRE DE CRISTO MOUNTAINS...

CITY           SKY/WX    TMP DP  RH WIND       PRES   REMARKS
ALAMOSA        CLOUDY    30  28  92 CALM      29.94F FOG
LA VETA PASS   LGT SNOW  27  25  93 MISG      29.96F
SAGUACHE       CLOUDY    30  28  93 CALM      29.95F
$$

COZ035-036-038>040-311100-
...NORTHERN COLORADO FRONT RANGE...

CITY           SKY/WX    TMP DP  RH WIND       PRES   REMARKS
DENVER INTL AP CLOUDY    33  25  72 NE5       29.95F WCI  29
DMNS CITY PARK   N/A     37  23  57 N2G8      29.96F
AURORA         CLOUDY    33  25  70 N3        29.96F
FRONT RANGE AP NOT AVBL
ERIE MUNI ARPT CLOUDY    32  29  88 CALM      29.96F
BOULDER MUN AP CLOUDY    36  30  80 NE5       29.96F
CENTENNIAL     CLOUDY    35  24  64 N3        29.95F
BROOMFIELD     MOCLDY    36  27  69 NE3       29.96F
FORT COLLINS   CLOUDY    34  25  69 N3        29.98F
LONGMONT       CLOUDY    37  29  72 CALM      29.98F
$$

COZ041-046-047-076>085-087-088-311100-
...PIKES PEAK/PALMER DIVIDE AND SOUTHERN FOOTHILLS...

CITY           SKY/WX    TMP DP  RH WIND       PRES   REMARKS
COLO. SPRINGS  CLOUDY    38  25  59 CALM      29.94F
A. F. ACADEMY  CLOUDY    34  26  71 N9        29.93F WCI  27
ELLICOTT       CLOUDY   N/A N/A N/A CALM      29.92F
FALCON         CLOUDY    34  24  67 N10       29.94F WCI  26
FORT CARSON    CLOUDY    38  27  64 NW3       29.92F
LIMON          CLOUDY    32  28  85 NW7       29.94F WCI  26
MONUMENT HILL  CLOUDY    30  27  86 NW5       29.94F WCI  25
TRINIDAD       CLOUDY    34  29  82 SW16      29.95F WCI  24
$$

COZ042>045-048>051-090-091-311100-
...NORTHEAST COLORADO...

CITY           SKY/WX    TMP DP  RH WIND       PRES   REMARKS
GREELEY ARPT   CLOUDY    34  23  64 CALM      29.96F
AKRON          CLOUDY    31  29  92 NW10      29.94F WCI  22
BURLINGTON     CLOUDY    34  33  96 SW8       29.94F FOG     WCI  27
WRAY           CLOUDY    36  34  93 E5        29.96F
STERLING       CLOUDY    34  32  93 NE5       29.95F WCI  30
HOLYOKE        NOT AVBL
FORT MORGAN    CLOUDY    35  27  73 N12       29.96F WCI  27
$$

COZ086-089-092>099-311100-
...SOUTHEAST COLORADO...

CITY           SKY/WX    TMP DP  RH WIND       PRES   REMARKS
PUEBLO         CLOUDY    36  35  96 CALM      29.94F
LA JUNTA       CLOUDY    38  36  92 CALM      29.95F
LAMAR          CLOUDY    38  36  92 S5        29.94F
SPRINGFIELD      N/A     33  32  96 S17G25    29.96F WCI  22
$$



USA.gov is the U.S. government's official web portal to all federal, state and local government web resources and services.